Hourly Data Report for July 02, 2017

ALGONQUIN PARK EAST GATE
ONTARIO

45°32'00.000" N
78°16'00.000" W
397.00 m
6080192
71581
TNK

Download Data

Hourly Data (July 2017)
Hourly Data Report for July 2, 2017
TIME
LST
Temp Definition
°C
Dew Point Definition
°C
Rel Hum Definition
%
Precip. Amount Definition
mm

Wind Dir Definition
10's deg

Wind Spd Definition
km/h
Visibility Definition
km
Stn Press Definition
kPa
Hmdx Definition


Wind Chill Definition


Weather Definition


00:00 14.9 12.3 84 0.0 27 6   96.38     LegendNANA
01:00 15.0 12.7 87 0.0 28 4   96.41     LegendNANA
02:00 15.0 13.1 89 0.0 26 4   96.41     LegendNANA
03:00 15.0 13.2 89 0.0 27 5   96.44     LegendNANA
04:00 15.0 13.5 91 0.0 27 3   96.49     LegendNANA
05:00 14.9 13.4 91 0.3 29 3   96.53     LegendNANA
06:00 15.0 13.6 91 0.0 23 2   96.56     LegendNANA
07:00 16.6 13.3 81 0.2 28 4   96.60     LegendNANA
08:00 17.3 13.1 76 0.0 27 5   96.62     LegendNANA
09:00 18.3 12.9 70 0.0 25 5   96.64     LegendNANA
10:00 19.0 11.5 62 0.0 27 6   96.65     LegendNANA
11:00 19.9 10.4 54 0.0 27 7   96.65     LegendNANA
12:00 20.8 13.4 62 0.0 25 7   96.63     LegendNANA
13:00 19.3 13.1 68 0.0 26 3   96.62     LegendNANA
14:00 21.0 12.8 59 0.0 26 5   96.57     LegendNANA
15:00 21.0 11.0 53 0.0 25 10   96.54     LegendNANA
16:00 20.5 11.6 57 0.0 26 8   96.52     LegendNANA
17:00 20.0 12.3 61 0.0 27 7   96.44     LegendNANA
18:00 16.7 14.4 86 3.0 27 6   96.53     LegendNANA
19:00 15.2 13.5 89 1.0 29 3   96.51     LegendNANA
20:00 14.2 12.7 91 0.0 27 1   96.52     LegendNANA
21:00 13.5 12.1 91 0.0 27 2   96.57     LegendNANA
22:00 12.7 11.5 92 0.0 0 1   96.60     LegendNANA
23:00 12.4 11.2 93 0.0 28 3   96.62     LegendNANA

Notes on Data Quality.

Legend

  • E = Estimated
  • M = Missing
  • NA = Not Available*
  • [empty] = Indicates an unobserved value
Date modified: